Location: Colle Santa Colomba
(42.0333°N, 12.5667°E)
Time: 02:43:47
(UTC+00:00)

SWARM C - Pass Details

Date: 25 October 2021
Orbit: 424 x 429 km, 87.3° (Epoch: 28 November)

Event Time Altitude Azimuth Distance (km) Brightness Sun altitude
Rises 17:39:54 0° 182° (S) 2,387 8.3 -16.8°
Reaches altitude 10° 17:41:55 10° 183° (S) 1,526 7.3 -17.1°
Maximum altitude 17:45:13 83° 270° (W) 441 4.5 -17.7°
Drops below altitude 10° 17:48:34 10° 360° (N) 1,541 7.3 -18.4°
Sets 17:50:36 0° 1° (N) 2,413 8.3 -18.7°
